SL-16 R/B, 22566

Orbit data source: Space-Track

SL-16 R/B, 22566 is space debris in LEO originally from a launch on Fri, 26 Mar 1993 UTC launched from the Tyuratam Missile And Space Complex (TTMTR). Debris objects in space refer to the collection of defunct objects orbiting the Earth. Examples of debris include non-operational satellites, rocket bodies, and fragments generated from explosions, collisions, or faulty payload assembly.

Loading next visibility...
Identifier
22566, 1993-016B
Orbit
LEO
Country
Flag of CISCIS
Related business
Manufacturer
Yuzhnoe
Mission
Spacecraft
Bus & Motor
11S772, Unknown motor
Mass
9,000 kg wet, 9,000 kg dry
Launch date (UTC)
1993-03-26 (33 years ago)
Launch vehicle
Unknown
Launch site
Tyuratam Missile And Space Complex (TTMTR)
Object type
Payload
Rocket body
Debris
Shape & HBR
Cyl, 5.2 m
Radar Cross Section
37.829 m², Large (>1 m²)

Expand to show TLE details & history
Last TLE update: 12 hours ago

TLE from 12 hours ago
0 SL-16 R/B
1 22566U 93016B   26035.13753023  .00000046  00000-0  48189-4 0  9994
2 22566  71.0080 285.6546 0010008   1.0894 359.0248 14.15303771697427
Epoch: 2026-02-04T03:18Z
TLE epoch observation values (Epoch: 2026-02-04T03:18:02.611Z)
Latitude
-0.00012°
Longitude
101.83525°
Altitude
836.455 km
Speed
7.439 km/s
True Right ascension
19h 02m 37s
True Declination
0° 00' 00"
Sunlit
Object was in daylight at epoch
Visualization orbit readout
Latitude
Unknown
Longitude
Unknown
Altitude
Unknown
Speed
Unknown
Apparent Right ascension
Unknown
Apparent Declination
Unknown
Sunlit
N/A
Visualization observer readout
Local Sidereal Time
17:13:21
Azimuth
Unknown
Elevation
Unknown
Doppler factor
Unknown
Orbital elements
Apogee altitude
846.426 km
Perigee altitude
831.98 km
Semi-major axis
7,217.34 km
Eccentricity
0.001
Inclination
71.008°
RAAN
285.6546°
Arg. of periapsis
1.0894°
True anomaly
359.02285°
Mean anomaly
359.0248°
Eccentric anomaly
359.02382°
Mean motion
3.53979 °/min
Orbital period
101.7 mins
BSTAR
0.000048189
Loading maneuver chart data...
Computing Atmospheric mass density...
Loading historical data...
Loading historical data...
Loading historical data...
Loading historical data...
Loading historical data...
Loading historical data...
Loading historical data...

Documentation

Showing up to 5 results
|